星链-5196 (STARLINK-5196 )

导读 | 豆包AI

STARLINK-5196是美国SpaceX公司星链计划的低轨通信卫星,于北京时间2023年1月19日发射升空,属于Starlink组网卫星,核心任务是依托近地轨道星座部署,为全球提供高速低延迟互联网接入服务,尤其覆盖偏远区域,同时可为海事、航空等领域提供通信支持。作为星链大规模组网的一环,该卫星进一步扩充了星链星座的服务容量,推动全球卫星互联网的覆盖能力。

Basic Information
目录编号:
55319
目录名称:
STARLINK-5196
国际标识:
2023-010BC
轨道中心:
EARTH
卫星名称:
星链-5196
卫星全名:
星链-5196 (STARLINK-5196 )
卫星状态:
在轨 (已飞行1151 天)
发射日期:
2023-01-19 UTC
国别 :
美国 (US)
星等 :
--
Orbit Information
数据来源 国际轨道数据 AOE轨道数据
星历时间 2026-03-15T11:59:14+0800
9小时前
查看轨道信息
2026-03-14T15:00:00+0800
1天前
查看轨道信息
半长轴 6950.173km 6950.175km
偏心率 0.000257 0.0003011
轨道倾角 70.001° 69.998°
近地点辐角 269.391° 252.802°
升交点赤经 350.607° 352.813°
平近点角 90.696° 71.732°
近地点 570.249km 569.945km
远地点 573.823km 574.131km
周期 96.107分钟 96.107分钟
每日圈数 14.983366 14.98336
Detailed Information
固有亮度:
5
最大亮度:
2.5
卫星平台:
Starlink v1.5
覆盖范围:
全球
运营商:
太空探索技术公司
运营商所在国:
美国
制造商(研发单位):
太空探索技术公司
制造商所在国:
美国
使用方式:
暂无
Satellite Introduction
星链(Starlink)计划是由太空探索技术公司(SpaceX)提出的一个巨型低轨卫星互联网星座项目,计划在2019年至2024年间在太空搭建由约1.2万颗卫星组成的“星链”网络,其中1584颗将部署在地球上空550千米处的近地轨道,并从2020年开始工作。该卫星仍在工作。
2D Orbit Map
3D Orbit Map
Orbit Altitude Analysis Chart
Orbit Inclination Analysis Chart
Orbit Comprehensive Analysis Chart
View Comprehensive Chart